553,2014-05-26 13:05:17,1401109517,60.86895,-3.16758,5,1,2002-00-00 12:05:20,,9.835,28,10.9,0,0,60.8574,-3.1156,20,4
30,2014-05-04 18:05:57,1399226757,59.76652,-5.70351,6,1,2014-05-04 18:05:37,1399226737,11.856,11,11.1,0,0,59.7933,-5.7031,49,5
31,2014-05-04 19:05:10,1399230310,59.78248,-4.49157,92,1,2014-05-04 19:05:04,1399230304,9.964,11,11.1,0,0,59.8055,-5.7056,3,5
32,2014-05-04 20:05:19,1399233919,59.84633,-5.71769,8,1,2014-05-04 20:05:03,1399233903,9.964,11,11.1,0,0,59.8005,-5.6856,3,5
33,2014-05-04 21:05:10,1399237510,59.76958,-5.63268,2,3,2014-05-04 21:05:10,1399237510,9.964,26,11.1,0,0,59.7955,-5.6659,3,5
34,2014-05-04 22:05:25,1399241125,59.69004,-8.70294,184,0,2014-05-04 22:05:23,1399241123,9.921,26,11.1,0,0,59.7919,-5.6462,3,1
35,2014-05-04 23:05:41,1399244741,59.76958,-5.63268,5,1,2014-05-04 23:05:08,1399244708,9.921,26,11.1,0,0,59.791,-5.6271,35,5
36,2014-05-05 00:05:52,1399248352,59.82154,-5.56874,4,1,2014-05-05 00:05:14,1399248314,9.878,26,11.1,0,0,59.792,-5.6076,43,4
37,2014-05-05 01:05:28,1399251928,59.77261,-5.56183,4,1,2014-05-05 01:05:44,1399251944,9.921,28,11.1,0,0,59.7947,-5.5885,20,5
38,2014-05-05 02:05:20,1399255520,59.8471,-4.92956,77,0,2014-05-05 02:05:12,1399255512,9.878,28,11.1,0,0,59.7975,-5.5727,13,5
39,2014-05-05 03:05:12,1399259112,59.80046,-5.63967,3,0,2014-05-05 03:05:37,1399259137,9.835,28,11.1,0,0,59.8004,-5.5592,3,5
40,2014-05-05 04:05:14,1399262714,59.83388,-4.42605,92,0,2014-05-05 04:05:12,1399262712,9.835,28,11.1,0,0,59.8031,-5.5503,3,4
41,2014-05-05 05:05:25,1399266325,59.82454,-5.49778,6,1,2014-05-05 05:05:14,1399266314,9.835,31,11.1,0,0,59.8053,-5.5443,19,3
42,2014-05-05 06:05:13,1399269913,59.82154,-5.56874,15,5,2014-05-05 06:05:13,1399269913,9.835,31,11.1,0,0,59.8069,-5.5397,3,5
43,2014-05-05 07:05:12,1399273512,59.80648,-5.49778,1,1,2014-05-05 07:05:08,1399273508,9.792,31,11.1,0,0,59.8076,-5.5349,3,5
44,2014-05-05 08:05:19,1399277119,59.80349,-5.56874,2,0,2014-05-05 08:05:42,1399277142,9.835,31,11.1,0,0,59.8085,-5.5286,3,5
45,2014-05-05 09:05:22,1399280722,59.85543,-5.50462,8,1,2014-05-05 09:05:12,1399280712,9.835,28,11,0,0,59.8105,-5.5188,3,5
46,2014-05-05 10:05:14,1399284314,59.82454,-5.49778,8,0,2014-05-05 10:05:57,1399284357,9.835,28,11.1,0,0,59.8127,-5.5057,3,5
47,2014-05-05 11:05:11,1399287911,59.77854,-5.42008,4,0,2014-05-05 11:05:20,1399287920,9.835,28,11.1,0,0,59.8161,-5.4882,3,5
48,2014-05-05 12:05:48,1399291548,59.82749,-5.42681,3,9,2014-05-05 12:05:09,1399291509,9.878,28,11.1,0,0,59.8199,-5.4697,39,2
49,2014-05-05 13:05:18,1399295118,59.86132,-5.36249,5,1,2014-05-05 13:05:36,1399295136,9.878,30,11,0,0,59.8239,-5.451,3,5
50,2014-05-05 14:05:41,1399298741,59.82454,-5.49778,2,2,2014-05-05 14:05:11,1399298711,9.878,30,11.1,0,0,59.8276,-5.4352,26,5
51,2014-05-05 15:05:13,1399302313,59.99213,-8.34295,184,6,2014-05-05 15:05:11,1399302311,9.878,30,11.1,0,0,59.8312,-5.4229,3,5
52,2014-05-05 16:05:13,1399305913,59.83041,-5.35583,2,1,2014-05-05 16:05:00,1399305900,9.878,30,11.1,0,0,59.8346,-5.4142,3,5
53,2014-05-05 17:05:11,1399309511,59.94742,-7.75549,149,2,2014-05-05 17:05:45,1399309545,9.878,29,11,0,0,59.8375,-5.4106,3,5
54,2014-05-05 18:05:11,1399313111,59.82749,-5.42681,1,2,2014-05-05 18:05:14,1399313114,9.835,29,11,0,0,59.8384,-5.405,3,5
55,2014-05-05 19:05:15,1399316715,59.92576,-7.02742,128,2,2014-05-05 19:05:44,1399316744,9.835,29,11.1,0,0,59.8395,-5.402,3,2
56,2014-05-05 20:05:12,1399320312,59.69778,-11.24018,335,1,2014-05-05 20:05:26,1399320326,9.835,29,11.1,0,0,59.8414,-5.3988,3,4
57,2014-05-05 21:05:14,1399323914,59.80944,-5.42681,5,1,2014-05-05 21:05:07,1399323907,9.835,36,11.1,0,0,59.8448,-5.3941,3,5
58,2014-05-05 22:05:31,1399327531,59.82749,-5.42681,11,2,2014-05-05 22:05:36,1399327536,9.835,36,11.1,0,0,59.8443,-5.3793,22,3
59,2014-05-05 23:05:22,1399331122,59.8642,-5.2914,3,1,2014-05-05 23:05:09,1399331109,9.835,36,11.1,0,0,59.8434,-5.3635,3,3
60,2014-05-06 00:05:11,1399334711,59.78408,-7.78762,152,2,2014-05-06 00:05:30,1399334730,9.835,36,11.1,0,0,59.845,-5.3465,3,5
61,2014-05-06 01:05:12,1399338312,59.83328,-5.28482,2,1,2014-05-06 01:05:12,1399338312,9.835,30,11,0,0,59.8501,-5.3278,3,5
62,2014-05-06 02:05:26,1399341926,59.7896,-7.14269,120,2,2014-05-06 02:05:07,1399341907,9.835,30,11.1,0,0,59.8544,-5.3088,17,5
63,2014-05-06 03:05:10,1399345510,59.88222,-5.2914,6,1,2014-05-06 03:05:02,1399345502,9.792,30,11.1,0,0,59.8579,-5.2948,3,3
64,2014-05-06 04:05:12,1399349112,59.86704,-5.22029,3,3,2014-05-06 04:05:34,1399349134,9.792,30,11.1,0,0,59.8618,-5.2847,3,5
65,2014-05-06 05:05:10,1399352710,59.86704,-5.22029,1,0,2014-05-06 05:05:14,1399352714,9.792,31,11,0,0,59.8651,-5.2781,3,5
66,2014-05-06 06:05:10,1399356310,59.92535,-4.08052,97,1,2014-05-06 06:05:37,1399356337,9.749,31,11.1,0,0,59.8681,-5.2757,3,5
67,2014-05-06 07:05:21,1399359921,59.83328,-5.28482,6,1,2014-05-06 07:05:13,1399359913,9.749,31,11.1,0,0,59.8709,-5.2734,3,2
68,2014-05-06 08:05:08,1399363508,59.91314,-5.29799,9,186,2014-05-06 08:05:12,1399363512,9.792,31,11.1,0,0,59.8735,-5.2711,3,5
69,2014-05-06 09:05:10,1399367110,59.91314,-5.29799,4,187,2014-05-06 09:05:13,1399367113,9.835,30,11,0,0,59.8757,-5.2613,3,5
70,2014-05-06 10:05:12,1399370712,59.83328,-5.28482,6,188,2014-05-06 10:05:10,1399370710,9.835,30,11.1,0,0,59.8768,-5.246,3,5
71,2014-05-06 11:05:09,1399374309,59.88787,-5.14917,3,189,2014-05-06 11:05:14,1399374314,9.878,30,11.1,0,0,59.8807,-5.2325,3,5
72,2014-05-06 12:05:13,1399377913,59.91314,-5.29799,2,189,2014-05-06 12:05:18,1399377918,10.05,30,11,0,0,59.8857,-5.2159,3,5
73,2014-05-06 13:05:11,1399381511,59.91599,-5.2268,2,5,2014-05-06 13:05:22,1399381522,10.05,30,11,0,0,59.8906,-5.1985,3,5
74,2014-05-06 14:05:12,1399385112,59.88787,-5.14917,2,0,2014-05-06 14:05:32,1399385132,10.179,30,11,0,0,59.8966,-5.1813,3,5
75,2014-05-06 15:05:12,1399388712,60.2206,-10.09166,283,1,2014-05-06 15:05:02,1399388702,10.179,30,11,0,0,59.903,-5.1675,3,5
76,2014-05-06 16:05:13,1399392313,59.91599,-5.2268,2,1,2014-05-06 16:05:10,1399392310,10.093,30,11,0,0,59.9103,-5.1559,3,5
77,2014-05-06 17:05:28,1399395928,59.91599,-5.2268,3,3,2014-05-06 17:05:44,1399395944,10.136,26,11,0,0,59.9141,-5.1491,3,5
78,2014-05-06 18:05:11,1399399511,59.89063,-5.07803,2,1,2014-05-06 18:05:12,1399399512,10.007,26,11.1,0,0,59.9193,-5.1399,3,5
79,2014-05-06 19:05:23,1399403123,60.02039,-6.76014,118,2,2014-05-06 19:05:44,1399403144,9.921,26,11,0,0,59.9238,-5.1244,3,5
80,2014-05-06 20:05:17,1399406717,59.9188,-5.15558,3,2,2014-05-06 20:05:13,1399406713,9.835,26,11.1,0,0,59.9259,-5.1086,3,5
81,2014-05-06 21:05:11,1399410311,59.89063,-5.07803,3,1,2014-05-06 21:05:05,1399410305,9.792,28,11,0,0,59.928,-5.092,3,5
82,2014-05-06 22:05:11,1399413911,59.92157,-5.08436,2,2,2014-05-06 22:05:23,1399413923,9.792,28,11.1,0,0,59.9301,-5.0756,3,5
83,2014-05-06 23:05:18,1399417518,59.92431,-5.01311,2,2,2014-05-06 23:05:10,1399417510,9.835,28,11,0,0,59.9324,-5.0562,3,5
84,2014-05-07 00:05:12,1399421112,59.927,-4.94186,3,3,2014-05-07 00:05:44,1399421144,9.792,28,11.1,0,0,59.936,-5.0334,3,5
85,2014-05-07 01:05:09,1399424709,59.92157,-5.08436,1,2,2014-05-07 01:05:10,1399424710,9.792,30,11.1,0,0,59.9397,-5.0105,3,5
86,2014-05-07 02:05:20,1399428320,59.927,-4.94186,3,2,2014-05-07 02:05:33,1399428333,9.749,30,11.1,0,0,59.944,-4.9847,3,1
87,2014-05-07 03:05:11,1399431911,59.927,-4.94186,2,2,2014-05-07 03:05:12,1399431912,9.835,30,11.1,0,0,59.9477,-4.9611,3,5
88,2014-05-07 04:05:10,1399435510,59.88813,-6.80587,122,1,2014-05-07 04:05:12,1399435512,9.792,30,11.1,0,0,59.949,-4.9384,3,5
89,2014-05-07 05:05:17,1399439117,59.95797,-4.94802,2,2,2014-05-07 05:05:52,1399439152,9.792,31,11,0,0,59.9519,-4.9221,3,4
90,2014-05-07 06:05:18,1399442718,59.9786,-4.87666,4,2,2014-05-07 06:05:45,1399442745,9.792,31,11.1,0,0,59.9546,-4.9107,3,4
91,2014-05-07 07:05:33,1399446333,59.9786,-4.87666,4,2,2014-05-07 07:05:29,1399446329,9.792,31,11,0,0,59.9554,-4.8996,26,4
92,2014-05-07 08:05:10,1399449910,59.92966,-4.87058,14,2,2014-05-07 08:05:10,1399449910,9.792,31,11.1,0,0,59.9575,-4.8929,3,5
93,2014-05-07 09:05:12,1399453512,59.98122,-4.80529,2,2,2014-05-07 09:05:05,1399453505,9.792,28,11,0,0,59.9593,-4.8859,3,5
94,2014-05-07 10:05:12,1399457112,59.85912,0.14288,287,1,2014-05-07 10:05:12,1399457112,9.792,28,11,0,0,59.9628,-4.8796,3,5
95,2014-05-07 11:05:19,1399460719,59.97594,-4.94802,2,3,2014-05-07 11:05:13,1399460713,9.835,28,11,0,0,59.9672,-4.8701,3,3
96,2014-05-07 12:05:11,1399464311,59.93228,-4.79929,2,3,2014-05-07 12:05:14,1399464314,9.835,28,11,0,0,59.9729,-4.8571,3,5
97,2014-05-07 13:06:58,1399468018,60.00958,-4.88276,3,2,2014-05-07 13:05:12,1399467912,9.835,33,11,0,0,59.9792,-4.8404,102,2
98,2014-05-07 14:05:09,1399471509,59.9786,-4.87666,3,2,2014-05-07 14:05:42,1399471542,9.835,33,11,0,0,59.9838,-4.8192,3,5
99,2014-05-07 15:05:20,1399475120,59.98122,-4.80529,3,2,2014-05-07 15:05:37,1399475137,9.878,33,11,0,0,59.9887,-4.7985,3,5
100,2014-05-07 16:05:13,1399478713,59.98381,-4.73389,3,2,2014-05-07 16:05:14,1399478714,9.878,33,11.1,0,0,59.9926,-4.7787,3,5
101,2014-05-07 17:05:09,1399482309,59.98122,-4.80529,10,2,2014-05-07 17:05:32,1399482332,9.921,27,11,0,0,59.9972,-4.76,3,5
102,2014-05-07 18:05:11,1399485911,59.98381,-4.73389,6,1,2014-05-07 18:05:10,1399485910,9.921,27,11,0,0,60.0018,-4.7447,3,5
103,2014-05-07 19:05:08,1399489508,60.24288,-8.70222,230,4,2014-05-07 19:05:09,1399489509,9.921,27,11,0,0,60.0063,-4.7317,3,5
104,2014-05-07 20:05:26,1399493126,60.06373,-4.74575,9,2,2014-05-07 20:05:39,1399493139,9.921,27,11,0,0,60.0096,-4.722,3,2
105,2014-05-07 21:05:12,1399496712,59.98635,-4.66249,2,1,2014-05-07 21:05:02,1399496702,9.921,27,11,0,0,60.0129,-4.7132,3,3
106,2014-05-07 22:05:12,1399500312,59.98635,-4.66249,2,2,2014-05-07 22:05:12,1399500312,9.878,27,11,0,0,60.0155,-4.7046,3,5
107,2014-05-07 23:05:39,1399503939,59.98381,-4.73389,5,2,2014-05-07 23:05:12,1399503912,9.878,27,11,0,0,60.0174,-4.6937,18,4
108,2014-05-08 00:05:21,1399507521,59.98381,-4.73389,12,2,2014-05-08 00:05:43,1399507543,9.878,27,11.1,0,0,60.0195,-4.6808,3,4
109,2014-05-08 01:05:37,1399511137,59.98635,-4.66249,6,2,2014-05-08 01:05:09,1399511109,9.878,29,11,0,0,60.0211,-4.6651,22,5
110,2014-05-08 02:05:09,1399514709,60.0378,-4.59681,4,2,2014-05-08 02:05:57,1399514757,9.878,29,11,0,0,60.0222,-4.6476,3,5
111,2014-05-08 03:05:11,1399518311,60.01986,-4.59681,3,2,2014-05-08 03:05:12,1399518312,9.835,29,11,0,0,60.0231,-4.6306,3,5
112,2014-05-08 04:05:23,1399521923,59.85365,-8.67557,236,2,2014-05-08 04:05:13,1399521913,9.878,29,11.1,0,0,60.0241,-4.6156,15,5
113,2014-05-08 05:05:32,1399525532,60.0688,-4.60256,5,2,2014-05-08 05:05:12,1399525512,9.878,25,11,0,0,60.0257,-4.6039,25,1
114,2014-05-08 06:05:25,1399529125,60.01213,-5.60354,124,2,2014-05-08 06:05:13,1399529113,9.878,25,11,0,0,60.0273,-4.5955,3,5
115,2014-05-08 07:05:26,1399532726,60.04027,-4.52528,2,2,2014-05-08 07:05:12,1399532712,9.878,25,11,0,0,60.0298,-4.5916,19,4
116,2014-05-08 08:05:11,1399536311,59.93624,-2.36211,140,2,2014-05-08 08:05:12,1399536312,9.921,25,11,0,0,60.0327,-4.5911,3,5
117,2014-05-08 09:05:12,1399539912,60.0688,-4.60256,7,1,2014-05-08 09:05:15,1399539915,9.964,28,11,0,0,60.0361,-4.5924,3,1
118,2014-05-08 10:05:13,1399543513,60.06904,-2.15566,157,2,2014-05-08 10:05:43,1399543543,9.964,28,11,0,0,60.0401,-4.5935,3,5
119,2014-05-08 11:05:12,1399547112,60.04027,-4.52528,2,4,2014-05-08 11:05:11,1399547111,9.921,28,11,0,0,60.0443,-4.5928,3,5
120,2014-05-08 12:05:12,1399550712,60.0378,-4.59681,5,1,2014-05-08 12:05:37,1399550737,9.921,28,11,0,0,60.049,-4.5884,3,3
121,2014-05-08 13:05:10,1399554310,60.04027,-4.52528,3,2,2014-05-08 13:05:09,1399554309,9.964,24,11,0,0,60.0537,-4.5804,3,3
122,2014-05-08 14:05:10,1399557910,60.0688,-4.60256,4,2,2014-05-08 14:05:43,1399557943,10.05,24,11,0,0,60.0588,-4.5679,3,5
123,2014-05-08 15:05:13,1399561513,60.0378,-4.59681,8,2,2014-05-08 15:05:12,1399561512,10.179,24,11,0,0,60.0639,-4.5517,3,5
124,2014-05-08 16:05:15,1399565115,60.07372,-4.45932,2,2,2014-05-08 16:05:06,1399565106,10.179,24,11,0,0,60.0691,-4.5348,3,5
125,2014-05-08 17:05:11,1399568711,60.07372,-4.45932,2,2,2014-05-08 17:05:38,1399568738,10.093,28,11,0,0,60.074,-4.5192,3,5
126,2014-05-08 18:05:13,1399572313,60.04027,-4.52528,2,2,2014-05-08 18:05:42,1399572342,10.05,28,11,0,0,60.0794,-4.5064,3,5
127,2014-05-08 19:05:13,1399575913,60.1202,-4.53663,12,2,2014-05-08 19:05:10,1399575910,10.007,28,11,0,0,60.0843,-4.4962,3,5
128,2014-05-08 20:05:12,1399579512,60.07372,-4.45932,1,2,2014-05-08 20:05:42,1399579542,10.007,28,11,0,0,60.0889,-4.4889,3,2
129,2014-05-08 21:05:12,1399583112,60.49538,1.23903,326,2,2014-05-08 21:05:06,1399583106,9.964,27,11,0,0,60.0933,-4.4838,3,2
130,2014-05-08 22:05:15,1399586715,60.07372,-4.45932,6,2,2014-05-08 22:05:08,1399586708,9.921,27,11,0,0,60.0971,-4.4805,3,3
131,2014-05-08 23:05:43,1399590343,60.07128,-4.53095,6,1,2014-05-08 23:05:37,1399590337,9.964,27,11,0,0,60.1008,-4.4766,33,5
132,2014-05-09 00:05:25,1399593925,60.07128,-4.53095,3,2,2014-05-09 00:05:30,1399593930,9.964,27,11,0,0,60.1049,-4.4712,3,5
133,2014-05-09 01:05:35,1399597535,60.07612,-4.38768,2,1,2014-05-09 01:05:13,1399597513,9.921,27,11,0,0,60.1091,-4.4613,18,5
134,2014-05-09 02:05:13,1399601113,60.07612,-4.38768,3,2,2014-05-09 02:05:09,1399601109,9.921,27,11,0,0,60.1136,-4.4483,3,5
135,2014-05-09 03:05:13,1399604713,60.07372,-4.45932,2,8,2014-05-09 03:05:15,1399604715,9.921,27,11,0,0,60.1179,-4.4323,3,5
136,2014-05-09 04:05:25,1399608325,60.12741,-4.32144,3,1,2014-05-09 04:05:07,1399608307,9.921,27,11,0,0,60.1223,-4.4139,3,4
137,2014-05-09 05:05:13,1399611913,60.12741,-4.32144,2,4,2014-05-09 05:05:08,1399611908,9.878,27,11,0,0,60.1258,-4.3952,3,5
138,2014-05-09 06:05:11,1399615511,60.00494,-8.35336,232,2,2014-05-09 06:05:37,1399615537,9.878,27,11,0,0,60.1287,-4.3767,3,5
139,2014-05-09 07:05:13,1399619113,60.12505,-4.39319,2,2,2014-05-09 07:05:31,1399619131,9.921,27,11,0,0,60.1312,-4.3631,3,5
140,2014-05-09 08:05:12,1399622712,60.14875,-4.61412,80,1,2014-05-09 08:05:03,1399622703,9.878,27,11,0,0,60.1336,-4.3545,3,5
141,2014-05-09 09:05:17,1399626317,60.15609,-4.39871,4,4,2014-05-09 09:05:11,1399626311,9.921,27,11,0,0,60.1359,-4.3491,3,5
142,2014-05-09 10:05:12,1399629912,59.9807,-1.43389,178,2,2014-05-09 10:05:03,1399629903,9.921,27,11,0,0,60.1377,-4.3459,3,5
143,2014-05-09 11:05:17,1399633517,60.12741,-4.32144,2,2,2014-05-09 11:05:12,1399633512,9.921,27,11,0,0,60.1403,-4.346,3,5
144,2014-05-09 12:05:13,1399637113,60.06429,-1.07821,192,2,2014-05-09 12:05:07,1399637107,10.007,27,11,0,0,60.143,-4.3451,3,5
145,2014-05-09 13:05:23,1399640723,60.15609,-4.39871,2,2,2014-05-09 13:05:34,1399640734,10.007,36,11,0,0,60.1459,-4.3406,3,5
146,2014-05-09 14:05:44,1399644344,60.15609,-4.39871,3,1,2014-05-09 14:05:01,1399644301,9.964,36,11,0,0,60.1495,-4.3319,28,5
147,2014-05-09 15:05:14,1399647914,60.16079,-4.25502,2,2,2014-05-09 15:05:43,1399647943,10.007,36,11,0,0,60.1536,-4.3186,3,5
148,2014-05-09 16:05:12,1399651512,60.15846,-4.32687,2,2,2014-05-09 16:05:12,1399651512,10.007,36,11,0,0,60.1582,-4.3014,3,5
149,2014-05-09 17:05:10,1399655110,60.15846,-4.32687,2,2,2014-05-09 17:05:21,1399655121,10.007,27,11,0,0,60.1625,-4.2815,3,5
150,2014-05-09 18:05:11,1399658711,60.12974,-4.24968,2,2,2014-05-09 18:05:13,1399658713,10.007,27,11,0,0,60.1665,-4.2617,3,5
151,2014-05-09 19:05:39,1399662339,60.12974,-4.24968,6,2,2014-05-09 19:05:12,1399662312,10.007,27,11,0,0,60.17,-4.2445,31,4
152,2014-05-09 20:05:12,1399665912,60.17865,-4.25502,3,1,2014-05-09 20:05:07,1399665907,10.007,27,11,0,0,60.1734,-4.2303,3,4
153,2014-05-09 21:05:13,1399669513,60.16079,-4.25502,10,2,2014-05-09 21:05:13,1399669513,10.007,25,11,0,0,60.1762,-4.221,3,5
154,2014-05-09 22:05:26,1399673126,60.16079,-4.25502,2,2,2014-05-09 22:05:23,1399673123,9.921,25,11,0,0,60.1786,-4.2154,18,5
155,2014-05-09 23:05:18,1399676718,60.16079,-4.25502,3,1,2014-05-09 23:05:20,1399676720,9.921,25,11,0,0,60.1812,-4.2122,3,5
156,2014-05-10 00:05:13,1399680313,60.16309,-4.18316,2,1,2014-05-10 00:05:13,1399680313,9.878,25,11,0,0,60.1837,-4.2084,3,5
157,2014-05-10 01:05:12,1399683912,60.17865,-4.25502,2,2,2014-05-10 01:05:12,1399683912,9.878,29,11,0,0,60.1864,-4.2024,3,5
158,2014-05-10 02:05:12,1399687512,60.17865,-4.25502,2,1,2014-05-10 02:05:12,1399687512,9.921,29,11,0,0,60.1883,-4.1919,3,4
159,2014-05-10 03:05:12,1399691112,60.1832,-4.11129,2,2,2014-05-10 03:05:48,1399691148,9.878,29,11,0,0,60.19,-4.1773,3,4
160,2014-05-10 04:05:12,1399694712,60.1832,-4.11129,2,2,2014-05-10 04:05:43,1399694743,9.878,29,11,0,0,60.1927,-4.16,3,5
161,2014-05-10 05:05:10,1399698310,60.21201,-4.18843,2,2,2014-05-10 05:05:12,1399698312,9.878,24,11,0,0,60.1947,-4.142,3,3
162,2014-05-10 06:05:13,1399701913,60.1832,-4.11129,8,3,2014-05-10 06:05:06,1399701906,9.878,24,11,0,0,60.197,-4.1238,3,4
163,2014-05-10 07:06:02,1399705562,60.21427,-4.11646,5,1,2014-05-10 07:05:43,1399705543,9.878,24,11,0,0,60.1985,-4.108,44,5
164,2014-05-10 08:05:54,1399709154,60.21427,-4.11646,3,1,2014-05-10 08:05:06,1399709106,9.921,24,11,0,0,60.2002,-4.0967,47,5
165,2014-05-10 09:05:13,1399712713,60.21648,-4.04449,2,2,2014-05-10 09:05:40,1399712740,9.921,27,11,0,0,60.202,-4.0905,3,5
166,2014-05-10 10:05:26,1399716326,60.1832,-4.11129,4,1,2014-05-10 10:05:11,1399716311,9.964,27,11,0,0,60.2044,-4.0896,18,5
167,2014-05-10 11:05:19,1399719919,60.21427,-4.11646,2,2,2014-05-10 11:05:19,1399719919,10.007,27,11,0,0,60.2069,-4.0915,3,5
168,2014-05-10 12:05:12,1399723512,60.21427,-4.11646,3,3,2014-05-10 12:05:12,1399723512,10.007,27,11,0,0,60.2095,-4.0952,3,5
169,2014-05-10 13:05:13,1399727113,60.26317,-4.12165,6,1,2014-05-10 13:05:20,1399727120,10.007,26,11,0,0,60.2123,-4.0977,3,5
170,2014-05-10 14:05:21,1399730721,60.21201,-4.18843,6,1,2014-05-10 14:05:09,1399730709,10.05,26,11,0,0,60.2157,-4.0967,3,1
171,2014-05-10 15:05:12,1399734312,60.21427,-4.11646,2,1,2014-05-10 15:05:46,1399734346,10.05,26,11,0,0,60.2204,-4.0893,3,5
172,2014-05-10 16:05:14,1399737914,60.21427,-4.11646,3,2,2014-05-10 16:05:12,1399737912,10.05,26,11,0,0,60.2249,-4.0765,3,5
173,2014-05-10 17:05:10,1399741510,60.21648,-4.04449,5,2,2014-05-10 17:05:37,1399741537,10.007,27,11,0,0,60.2301,-4.0585,3,5
174,2014-05-10 18:05:17,1399745117,60.21648,-4.04449,9,2,2014-05-10 18:05:13,1399745113,10.007,27,11,0,0,60.2354,-4.0404,3,5
175,2014-05-10 19:05:12,1399748712,60.21866,-3.9725,2,7,2014-05-10 19:05:12,1399748712,10.007,27,11,0,0,60.2409,-4.0207,3,5
176,2014-05-10 20:05:10,1399752310,60.26757,-3.9775,5,2,2014-05-10 20:05:07,1399752307,10.007,27,11,0,0,60.2464,-4.0038,3,4
177,2014-05-10 21:05:14,1399755914,60.26757,-3.9775,3,1,2014-05-10 21:05:12,1399755912,10.007,29,11,0,0,60.2518,-3.991,3,5
178,2014-05-10 22:05:12,1399759512,60.26972,-3.90541,1,1,2014-05-10 22:05:14,1399759514,9.964,29,11,0,0,60.2568,-3.9778,3,5
179,2014-05-10 23:07:19,1399763239,60.21866,-3.9725,3,2,2014-05-10 23:05:12,1399763112,9.921,29,11,0,0,60.2624,-3.9735,130,5
180,2014-05-11 00:05:13,1399766713,60.26539,-4.04958,2,1,2014-05-11 00:05:31,1399766731,9.921,29,11,0,0,60.268,-3.9693,3,3
181,2014-05-11 01:05:13,1399770313,60.56706,0.43792,259,5,2014-05-11 01:05:09,1399770309,9.921,29,11,0,0,60.2731,-3.9645,3,2
182,2014-05-11 02:05:09,1399773909,60.26972,-3.90541,2,1,2014-05-11 02:05:00,1399773900,9.921,29,11,0,0,0,0,3,5
183,2014-05-11 03:05:11,1399777511,60.26757,-3.9775,3,1,2014-05-11 03:05:22,1399777522,9.878,29,11,0,0,60.2847,-3.9441,3,5
184,2014-05-11 04:05:11,1399781111,60.26972,-3.90541,4,2,2014-05-11 04:05:35,1399781135,9.878,29,11,0,0,60.2908,-3.9236,3,5
185,2014-05-11 05:05:11,1399784711,60.31861,-3.91034,4,2,2014-05-11 05:05:30,1399784730,9.878,26,11,0,0,60.2974,-3.8997,3,5
186,2014-05-11 06:05:27,1399788327,60.35183,-3.84299,11,2,2014-05-11 06:05:10,1399788310,9.921,26,11,0,0,60.303,-3.8727,20,3
187,2014-05-11 07:05:12,1399791912,60.27182,-3.8333,7,1,2014-05-11 07:05:44,1399791944,9.878,26,11,0,0,60.3078,-3.8437,3,4
188,2014-05-11 08:05:16,1399795516,60.45499,-6.48472,164,1,2014-05-11 08:05:27,1399795527,9.878,26,11,0,0,60.3115,-3.8174,3,4
189,2014-05-11 09:05:14,1399799114,60.30293,-3.83814,1,1,2014-05-11 09:05:12,1399799112,9.921,28,11,0,0,60.3146,-3.7973,3,3
190,2014-05-11 10:05:19,1399802719,60.46197,-6.34019,164,2,2014-05-11 10:05:12,1399802712,9.921,28,11,0,0,60.3172,-3.7834,3,5
191,2014-05-11 11:05:19,1399806319,60.3539,-3.77069,5,1,2014-05-11 11:05:14,1399806314,9.921,28,11,0,0,60.3194,-3.7751,3,3
192,2014-05-11 12:05:10,1399809910,60.28545,-3.32824,76,2,2014-05-11 12:05:50,1399809950,9.921,28,11,0,0,60.3212,-3.7717,3,5
193,2014-05-11 13:05:13,1399813513,60.35594,-3.69838,3,2,2014-05-11 13:05:44,1399813544,9.964,30,11,0,0,60.3235,-3.771,3,5
193,2014-05-11 13:05:50,1399813550,60.35594,-3.69838,2,2,2014-05-11 13:05:44,1399813544,9.964,30,11,0,0,60.3235,-3.771,40,5
194,2014-05-11 14:05:18,1399817118,60.30159,-2.60585,93,3,2014-05-11 14:05:03,1399817103,9.964,30,11,0,0,60.326,-3.7696,3,5
195,2014-05-11 15:05:11,1399820711,60.305,-3.76594,5,2,2014-05-11 15:05:01,1399820701,10.007,30,11,0,0,60.3289,-3.7634,3,2
196,2014-05-11 16:05:33,1399824333,60.32481,-3.69372,3,3,2014-05-11 16:05:09,1399824309,10.007,30,11,0,0,60.3325,-3.7523,24,5
197,2014-05-11 17:05:09,1399827909,60.32481,-3.69372,1,3,2014-05-11 17:05:22,1399827922,10.007,27,11,0,0,60.3375,-3.7348,3,5
198,2014-05-11 18:05:14,1399831514,60.22752,0.65024,250,6,2014-05-11 18:05:37,1399831537,10.007,27,11,0,0,60.3412,-3.7134,3,5
199,2014-05-11 19:05:57,1399835157,60.35793,-3.62606,6,2,2014-05-11 19:05:12,1399835112,10.007,27,11,0,0,60.345,-3.6913,35,5
200,2014-05-11 20:05:17,1399838717,60.35793,-3.62606,2,2,2014-05-11 20:05:25,1399838725,10.007,27,11,0,0,60.3487,-3.6696,3,5
201,2014-05-11 21:05:40,1399842340,60.39184,-2.97467,76,2,2014-05-11 21:05:30,1399842330,10.007,28,11,0,0,60.3528,-3.6531,34,1
202,2014-05-11 22:05:20,1399845920,60.3268,-3.62148,5,2,2014-05-11 22:05:09,1399845909,10.007,28,11,0,0,60.3563,-3.6418,3,5
203,2014-05-11 23:05:18,1399849518,60.35594,-3.69838,4,2,2014-05-11 23:05:14,1399849514,9.964,28,11,0,0,60.3601,-3.6358,3,3
204,2014-05-12 00:05:13,1399853113,60.3268,-3.62148,3,3,2014-05-12 00:05:06,1399853106,9.964,28,11,0,0,60.3641,-3.6344,3,5
205,2014-05-12 01:05:13,1399856713,60.35594,-3.69838,3,2,2014-05-12 01:05:13,1399856713,9.964,32,11,0,0,60.368,-3.635,3,5
206,2014-05-12 02:05:22,1399860322,60.38908,-3.63065,5,2,2014-05-12 02:05:10,1399860310,9.964,32,11,0,0,60.3724,-3.6357,3,5
207,2014-05-12 03:05:15,1399863915,60.64639,0.65854,245,7,2014-05-12 03:05:12,1399863912,9.964,32,11,0,0,60.3775,-3.6332,3,5
208,2014-05-12 04:05:14,1399867514,60.40682,-3.63065,10,1,2014-05-12 04:05:13,1399867513,9.964,32,11,0,0,60.3834,-3.6243,3,5
209,2014-05-12 05:05:10,1399871110,60.40877,-3.55823,2,2,2014-05-12 05:05:37,1399871137,9.921,31,11,0,0,60.3897,-3.6101,3,2
210,2014-05-12 06:05:13,1399874713,60.40877,-3.55823,2,2,2014-05-12 06:05:09,1399874709,9.921,31,11,0,0,60.3968,-3.5912,3,5
211,2014-05-12 07:05:12,1399878312,60.40682,-3.63065,2,2,2014-05-12 07:05:32,1399878332,9.921,31,11,0,0,60.4032,-3.5677,3,5
212,2014-05-12 08:05:12,1399881912,60.71977,-8.83537,301,1,2014-05-12 08:05:11,1399881911,9.964,31,11,0,0,60.4097,-3.5448,3,2
213,2014-05-12 09:05:12,1399885512,60.43994,-3.56274,4,2,2014-05-12 09:05:07,1399885507,9.964,28,11,0,0,60.4151,-3.5232,3,5
214,2014-05-12 10:06:04,1399889164,60.54024,-5.69608,146,2,2014-05-12 10:05:24,1399889124,10.007,28,11,0,0,60.419,-3.5046,57,1
215,2014-05-12 11:05:14,1399892714,60.41069,-3.48579,4,1,2014-05-12 11:05:01,1399892701,10.007,28,11,0,0,60.4231,-3.4959,3,5
216,2014-05-12 12:05:14,1399896314,60.52701,-5.2538,116,1,2014-05-12 12:05:07,1399896307,10.05,28,11,0,0,60.4256,-3.4907,3,5
217,2014-05-12 13:05:11,1399899911,60.43994,-3.56274,2,4,2014-05-12 13:05:08,1399899908,10.093,26,11,0,0,60.4275,-3.4898,3,3
218,2014-05-12 14:05:20,1399903520,60.41257,-3.41334,3,2,2014-05-12 14:05:13,1399903513,10.093,26,11,0,0,60.4292,-3.4911,3,4
219,2014-05-12 15:05:11,1399907111,60.41257,-3.41334,1,2,2014-05-12 15:05:42,1399907142,10.136,26,11,0,0,60.4309,-3.4907,3,5